Tracking 18840 objects as of 19-November-2017
HD Live streaming from Space Station
objects crossing your sky now

FLOCK 2P 6

Track FLOCK 2P 6 now!
10-day predictions
FLOCK 2P 6 is classified as:


NORAD ID: 41606
Int'l Code: 2016-040H
Perigee: 496.4 km
Apogee: 509.0 km
Inclination: 97.4 °
Period: 94.5 minutes
Semi major axis: 6873 km
RCS: Unknown
Launch date: June 22, 2016
Source: (TBD)
Launch site: SRIHARIKOTA (SRI)

Note: This is a ROCKET BODY
aabbcc
Your satellite tracking list
Your tracking list is empty




NASA's NSSDC Master Catalog

Two Line Element Set (TLE):
1 41606U 16040H   17323.19059998  .00005231  00000-0  22255-3 0  9994
2 41606  97.4423  24.6252 0009144 247.1477 112.8794 15.23409520 78298
Source of the keplerian elements: AFSPC